SCP
0 0 0 0 0 0 0 0 0 0 0 0 0 0 0 0 0 0 0 0 0 0 1 1 1 1 1 1 1 1 1 1 1 1 0 0 0 0 0 0 0 0 0
0 0 0 0 0 0 0 0 0 0 0 0 0 0 0 0 0 0 0 0 0 0 0 1 1 1 1 1 1 1 1 1 1 1 1 1 0 0 0 0 0 0 0
0 0 0 0 0 0 0 0 0 0 0 0 0 0 0 0 0 0 0 0 0 0 0 0 1 2 1 1 1 1 1 0 1 1 1 0 0 0 0 0 0 0 0
0 0 0 0 0 0 0 0 0 0 0 0 0 0 0 0 0 0 0 0 0 0 1 0 0 1 1 1 1 1 1 0 0 0 0 0 0 0 0 0 0 0 0
0 0 0 0 0 0 0 0 0 0 0 0 0 0 0 0 0 0 0 0 0 0 0 0 0 0 0 1 1 0 0 0 0 0 0 0 0 0 0 0 0 0 0
0 0 0 0 0 0 0 0 0 0 0 0 0 0 0 0 0 0 0 0 0 0 0 1 1 0 0 0 0 1 0 0 0 0 0 0 0 0 0 0 0 0 0
0 0 0 0 0 0 0 0 0 0 0 0 0 0 0 0 0 0 0 0 0 0 0 0 0 0 0 0 0 1 0 0 0 0 0 0 0 0 0 0 0 0 0
0 0 0 0 0 0 0 0 0 0 0 0 0 0 0 0 0 0 0 0 0 0 0 0 0 0 0 0 0 0 0 1 0 0 0 0 0 0 0 0 0 0 0
0 0 0 0 0 0 0 0 0 0 0 0 0 0 0 0 0 0 0 0 0 0 0 0 0 -0 0 1 0 0 0 0 1 0 0 0 0 0 0 0 0 0 0
0 0 0 0 0 -0 -0 0 0 0 0 0 0 0 0 0 0 0 0 0 0 0 0 0 0 0 0 0 0 0 0 0 0 0 0 0 0 0 0 0 0 0 0
0 0 0 0 0 0 0 0 0 0 0 0 0 0 0 0 0 0 0 0 0 1 0 0 0 0 0 1 1 1 0 0 1 1 1 0 0 0 0 0 0 0 0
0 0 0 0 0 0 0 0 0 0 0 0 0 0 0 0 0 0 0 0 0 0 1 0 0 0 0 -0 0 1 1 0 0 0 0 1 1 0 0 0 -0 0 -0
0 0 0 0 0 0 0 0 0 0 0 0 0 0 0 0 0 0 0 0 0 0 0 0 0 0 0 0 1 0 0 0 0 0 0 0 0 0 0 -0 -0 -0 0
0 0 0 0 0 0 0 0 0 0 0 0 0 0 0 0 0 0 0 0 0 -0 0 -0 0 0 0 0 0 0 0 0 0 0 0 0 0 -0 -0 0 0 0 0
0 0 0 0 0 0 0 0 0 -0 0 0 0 0 0 0 0 0 0 -0 0 0 0 0 0 0 0 0 0 0 0 0 0 0 0 0 0 0 0 0 0 0 0
0 0 0 -0 0 0 0 0 -0 -0 0 0 0 0 0 0 0 0 0 -0 -0 0 0 0 0 0 0 0 0 0 0 0 0 0 0 0 0 0 0 0 0 0 0
0 0 0 0 -0 0 0 0 0 -0 0 -0 0 0 0 0 0 0 -0 -0 0 0 0 0 0 0 0 0 0 0 0 0 0 0 0 0 0 0 0 0 0 0 0
0 0 0 -0 -0 0 0 0 0 0 0 -0 0 -0 0 0 0 0 0 -0 0 0 0 0 0 0 0 0 0 0 0 0 0 0 0 0 0 0 0 0 0 0 0
0 0 0 -0 -0 0 0 0 0 -0 0 -0 0 -0 -0 0 0 0 0 0 0 0 0 0 0 0 0 0 0 0 0 -0 0 -0 0 0 0 0 0 -0 -0 -0 -0
0 -0 0 -0 -0 0 0 0 -0 0 -0 -0 0 -0 -0 -0 0 0 0 0 -0 -0 0 0 0 0 -0 0 0 -0 -0 -0 0 -0 -0 0 0 0 -0 -0 -0 -0 -0
-0 0 0 -0 0 -0 0 0 0 0 0 0 -0 0 -0 -0 -0 -0 0 0 -0 -0 0 0 0 -0 -0 0 0 0 0 0 0 0 0 0 -0 -0 -0 -0 -0 -0 -0
0 0 0 0 0 0 -0 -0 0 -0 0 0 0 0 -0 -0 -0 0 0 0 -0 0 0 0 0 0 0 0 0 0 0 0 0 0 -0 -0 -0 -0 -0 -0 -0 -0 -0
-0 0 0 -0 0 0 -0 -0 0 0 0 0 0 0 -0 0 -0 0 0 0 -0 0 0 0 0 0 0 0 0 0 0 -0 -0 -0 -0 -0 -0 -0 0 0 -0 -0 -0
0 0 0 0 0 0 -0 0 0 0 0 0 0 0 0 0 0 0 0 0 0 0 0 0 0 0 0 0 0 -0 0 0 -0 0 0 -0 0 0 0 0 0 0 0
0 0 0 -0 -0 0 -0 0 0 0 0 0 0 0 0 -0 -0 0 0 0 0 -0 -0 -0 0 0 0 0 0 -0 -0 0 0 0 -0 -0 0 0 0 0 0 0 0
0 0 0 0 0 -0 -0 -0 -0 0 0 0 0 -0 -0 -0 -0 0 0 0 0 0 0 -0 -0 -0 -0 -0 0 0 0 0 0 -0 -0 -0 0 0 0 0 0 0 0
Wind_Speed_500mb
18 14 17 17 17 17 18 20 20 22 21 22 23 27 32 36 42 48 49 42 38 47 52 53 51 58 58 54 50 48 46 45 42 38 32 28 24 23 28 27 22 19 19
15 12 13 16 17 18 19 19 21 24 23 23 24 26 30 35 38 41 45 49 56 47 45 54 53 55 59 59 54 50 46 43 43 41 37 33 33 33 39 36 31 24 23
15 16 15 16 18 21 22 22 24 25 27 27 28 27 29 32 38 43 43 39 37 46 47 51 56 52 56 59 58 55 53 59 53 49 45 40 40 41 45 44 38 28 24
17 17 16 17 21 20 21 22 23 27 28 29 31 32 29 31 33 38 43 44 50 42 47 42 48 50 55 56 57 59 57 54 51 46 48 49 45 43 52 50 38 27 25
19 20 16 19 24 19 22 23 24 26 26 28 30 31 32 33 34 35 39 45 46 56 39 32 41 46 47 54 59 57 51 47 49 46 40 31 55 54 55 42 31 24 25
20 22 20 22 25 20 22 25 27 21 24 28 30 31 33 33 33 35 37 40 45 48 50 38 41 40 46 48 47 49 49 45 40 28 31 41 45 40 42 36 27 28 27
21 22 18 22 24 22 27 35 26 26 24 27 30 32 36 32 36 30 33 37 38 47 51 56 47 43 31 46 52 41 34 34 37 31 34 35 31 36 58 43 40 35 32
21 19 24 23 26 25 28 28 27 24 22 26 27 30 33 30 28 32 26 30 37 35 45 40 59 47 50 37 39 39 42 41 42 39 44 41 42 41 52 47 49 41 30
21 21 24 27 24 25 25 27 24 24 28 21 24 20 20 24 34 25 24 34 29 29 36 42 52 62 60 49 43 42 41 46 45 41 40 42 40 41 56 53 51 38 31
22 23 23 24 28 24 31 25 24 26 23 25 25 21 28 31 26 28 18 20 22 30 31 30 43 49 51 51 53 43 37 39 47 47 52 51 46 42 61 59 42 38 33
19 23 19 24 27 21 30 22 26 27 22 27 26 37 33 31 34 38 40 35 25 24 31 34 45 48 59 56 57 47 44 39 34 44 41 45 50 44 57 42 46 38 31
25 28 25 21 24 29 21 21 23 25 22 24 20 28 27 35 36 39 40 44 39 43 35 35 39 39 45 59 52 50 45 48 48 38 35 42 54 50 55 29 35 35 33
17 15 19 19 21 25 18 20 23 22 24 21 26 29 36 44 41 42 39 46 45 45 43 35 32 33 31 51 48 38 46 35 34 29 39 70 37 54 34 39 36 36 31
18 19 16 18 22 22 12 20 21 20 25 28 28 31 41 47 29 26 34 36 21 23 25 26 28 35 34 36 45 39 31 31 36 44 45 45 37 36 42 40 38 34 29
14 13 20 17 23 20 15 20 23 22 24 25 26 25 36 39 29 14 15 19 17 6 17 19 16 22 28 26 28 30 33 41 51 40 34 34 39 41 41 40 36 32 31
22 18 17 15 17 18 17 19 22 25 20 22 21 20 24 27 34 11 8 11 13 18 14 15 20 15 27 30 31 39 48 53 47 41 45 47 47 42 38 35 33 32 33
24 26 20 20 15 18 20 19 20 18 13 14 18 19 19 18 35 14 8 10 2 6 6 9 11 15 25 38 41 47 47 48 48 44 41 35 33 33 33 30 29 29 30
27 27 21 21 17 20 13 14 17 11 11 14 18 20 18 18 19 30 14 5 1 1 13 11 13 13 11 45 45 54 52 48 43 39 28 25 22 21 21 21 21 23 28
32 25 18 18 12 13 12 9 8 9 9 11 16 21 23 17 19 16 17 23 23 12 18 20 21 35 31 51 51 45 40 36 27 31 28 25 23 22 22 21 20 21 25
29 27 23 20 21 11 12 11 5 8 5 7 11 15 19 20 15 15 13 19 21 17 24 31 37 36 52 40 35 41 36 35 26 29 27 22 19 18 18 18 19 20 23
30 25 29 21 17 14 14 11 5 5 6 7 10 13 18 22 20 17 13 9 23 25 41 35 27 30 33 36 32 32 33 36 25 31 23 21 19 21 22 23 25 23 22
29 24 20 18 16 15 21 21 9 6 5 3 5 6 9 16 19 15 17 17 23 23 27 18 13 15 23 27 26 28 32 32 30 27 26 24 29 21 20 21 26 22 21
23 24 20 19 20 24 21 25 19 11 6 7 3 8 10 12 13 14 14 15 19 14 15 16 19 15 18 14 21 21 25 14 19 20 21 15 25 22 22 30 29 18 20
25 20 26 21 21 22 23 19 19 14 9 8 5 2 3 10 13 8 9 9 10 7 15 16 14 14 14 16 11 12 14 13 13 10 12 8 21 12 25 19 19 21 29
27 18 17 22 21 25 25 22 18 17 18 9 8 9 1 5 3 7 8 6 6 3 2 3 4 7 11 15 18 11 6 10 13 13 11 13 11 18 20 21 22 20 21
24 26 28 22 22 21 24 28 24 21 22 15 14 14 11 11 5 4 8 6 7 5 4 4 5 4 7 14 18 18 11 9 6 11 18 6 14 12 19 21 19 17 18
Wind_Direction_500mb
322 337 331 338 335 328 326 324 322 310 308 303 289 271 261 255 257 249 240 259 271 266 254 244 239 235 234 235 236 235 233 230 228 226 225 224 227 226 228 226 221 225 235
316 333 335 325 325 321 315 322 317 319 312 302 291 283 270 256 252 252 254 262 269 272 270 252 242 237 237 233 233 235 234 232 227 224 221 222 221 220 222 228 230 235 242
318 328 323 328 319 316 324 319 317 319 312 303 291 285 277 269 257 252 251 254 260 264 267 266 250 240 236 235 233 233 230 230 231 229 225 220 224 225 224 224 226 231 238
310 318 315 314 307 324 314 317 315 313 306 298 291 286 278 269 263 255 252 253 249 254 264 268 255 241 240 237 237 237 239 241 239 239 239 240 230 219 229 213 222 229 219
308 314 312 302 306 318 314 313 309 306 306 299 292 285 279 274 266 261 254 250 250 246 253 261 267 245 237 236 237 240 237 238 241 243 250 263 244 237 223 203 207 218 215
306 303 303 300 307 300 301 296 298 305 313 303 294 288 282 273 266 261 257 252 248 249 242 249 251 252 244 241 233 240 243 244 242 240 247 257 252 243 234 216 228 218 218
303 297 303 298 298 291 292 299 313 301 313 310 302 296 291 276 265 261 256 252 250 246 243 248 247 244 252 245 237 230 227 224 209 219 223 223 229 243 227 225 218 213 211
294 293 291 288 295 293 295 301 300 310 313 313 313 303 291 289 266 241 259 252 249 248 248 232 246 238 245 233 238 237 228 222 217 218 229 239 234 224 220 218 201 204 209
288 287 288 291 289 292 290 289 306 308 309 307 303 301 310 291 311 286 258 248 250 250 247 246 238 245 239 228 225 229 215 216 218 225 232 239 234 232 224 199 198 206 203
260 283 276 285 285 281 281 287 297 300 305 308 299 309 291 289 289 288 269 250 253 254 253 240 239 233 232 235 242 230 225 217 224 228 229 237 230 226 202 181 200 198 196
278 291 279 279 286 285 283 292 299 290 300 309 322 323 301 289 284 269 274 270 264 255 251 248 242 231 233 231 224 215 241 238 229 229 232 228 223 215 180 187 190 196 199
309 301 280 283 282 283 289 293 289 293 302 302 314 335 330 308 283 276 264 275 269 263 256 253 242 238 249 215 216 214 222 233 241 230 221 212 202 180 174 177 206 202 204
309 284 290 285 281 288 294 300 309 307 308 300 305 319 324 323 297 273 262 270 265 267 237 249 244 229 216 212 212 209 218 223 219 203 191 165 171 183 193 185 191 191 200
296 304 297 287 283 294 304 308 322 313 299 298 299 316 339 324 324 280 261 256 247 235 243 231 236 230 216 197 209 198 208 201 182 158 149 162 181 172 159 161 176 186 198
294 312 285 295 282 285 297 312 306 307 311 302 302 322 353 350 329 306 246 230 227 270 231 211 204 207 212 185 186 182 177 169 168 173 168 168 162 157 161 174 184 192 207
277 276 301 300 298 275 290 303 305 303 311 311 321 324 349 351 5 317 195 196 199 223 227 211 209 194 192 187 177 162 150 154 160 163 156 154 158 165 175 185 200 211 214
280 274 286 294 290 291 299 288 303 311 320 329 336 349 334 338 11 34 156 154 221 249 176 213 209 191 188 173 159 158 154 152 147 148 149 154 165 180 194 204 209 211 211
269 279 279 277 270 286 284 279 308 348 4 355 0 9 15 17 16 49 83 117 115 118 137 143 111 175 157 149 140 139 138 141 144 153 163 169 176 188 195 195 198 199 198
269 267 283 271 255 281 264 268 293 338 358 6 16 25 33 38 36 42 69 68 85 85 115 119 102 135 127 122 125 126 126 128 149 152 157 156 156 160 170 179 186 192 193
263 253 266 263 256 255 254 254 344 303 340 20 23 42 45 45 38 59 76 89 81 97 112 105 118 106 119 124 121 125 133 148 153 152 149 148 152 159 165 171 176 181 188
257 258 255 234 248 239 238 220 289 286 321 3 56 58 42 44 47 56 52 102 98 93 128 113 121 129 128 139 145 147 147 154 157 169 176 183 195 196 195 193 192 190 191
246 242 245 245 241 241 222 233 236 269 255 333 29 49 36 35 36 48 66 79 109 103 125 130 124 130 127 143 153 153 161 160 164 198 193 216 207 209 210 227 214 213 219
252 251 239 234 226 226 243 234 238 250 200 281 296 336 122 66 50 33 61 79 91 99 84 110 136 123 142 137 154 150 157 162 164 165 190 224 186 225 213 216 203 208 224
241 246 244 233 230 228 230 234 226 211 223 250 214 317 349 69 58 96 74 98 90 101 105 96 110 114 154 124 119 136 142 168 166 176 211 241 182 220 201 222 200 244 244
246 233 243 225 219 225 231 217 209 217 231 248 235 208 159 238 329 92 88 140 137 60 197 201 160 162 177 181 167 144 150 178 195 192 227 218 214 211 232 233 237 243 265
264 228 230 229 228 213 237 221 220 223 242 232 220 229 259 232 272 145 107 146 172 178 182 320 223 199 200 198 182 165 156 196 198 178 192 193 230 226 235 234 244 258 286
Wind_Speed_850mb
18 14 17 17 17 17 18 20 20 22 21 22 23 27 32 36 42 48 49 42 38 47 52 53 51 58 58 54 50 48 46 45 42 38 32 28 24 23 28 27 22 19 19
15 12 13 16 17 18 19 19 21 24 23 23 24 26 30 35 38 41 45 49 56 47 45 54 53 55 59 59 54 50 46 43 43 41 37 33 33 33 39 36 31 24 23
15 16 15 16 18 21 22 22 24 25 27 27 28 27 29 32 38 43 43 39 37 46 47 51 56 52 56 59 58 55 53 59 53 49 45 40 40 41 45 44 38 28 24
17 17 16 17 21 20 21 22 23 27 28 29 31 32 29 31 33 38 43 44 50 42 47 42 48 50 55 56 57 59 57 54 51 46 48 49 45 43 52 50 38 27 25
19 20 16 19 24 19 22 23 24 26 26 28 30 31 32 33 34 35 39 45 46 56 39 32 41 46 47 54 59 57 51 47 49 46 40 31 55 54 55 42 31 24 25
20 22 20 22 25 20 22 25 27 21 24 28 30 31 33 33 33 35 37 40 45 48 50 38 41 40 46 48 47 49 49 45 40 28 31 41 45 40 42 36 27 28 27
21 22 18 22 24 22 27 35 26 26 24 27 30 32 36 32 36 30 33 37 38 47 51 56 47 43 31 46 52 41 34 34 37 31 34 35 31 36 58 43 40 35 32
21 19 24 23 26 25 28 28 27 24 22 26 27 30 33 30 28 32 26 30 37 35 45 40 59 47 50 37 39 39 42 41 42 39 44 41 42 41 52 47 49 41 30
21 21 24 27 24 25 25 27 24 24 28 21 24 20 20 24 34 25 24 34 29 29 36 42 52 62 60 49 43 42 41 46 45 41 40 42 40 41 56 53 51 38 31
22 23 23 24 28 24 31 25 24 26 23 25 25 21 28 31 26 28 18 20 22 30 31 30 43 49 51 51 53 43 37 39 47 47 52 51 46 42 61 59 42 38 33
19 23 19 24 27 21 30 22 26 27 22 27 26 37 33 31 34 38 40 35 25 24 31 34 45 48 59 56 57 47 44 39 34 44 41 45 50 44 57 42 46 38 31
25 28 25 21 24 29 21 21 23 25 22 24 20 28 27 35 36 39 40 44 39 43 35 35 39 39 45 59 52 50 45 48 48 38 35 42 54 50 55 29 35 35 33
17 15 19 19 21 25 18 20 23 22 24 21 26 29 36 44 41 42 39 46 45 45 43 35 32 33 31 51 48 38 46 35 34 29 39 70 37 54 34 39 36 36 31
18 19 16 18 22 22 12 20 21 20 25 28 28 31 41 47 29 26 34 36 21 23 25 26 28 35 34 36 45 39 31 31 36 44 45 45 37 36 42 40 38 34 29
14 13 20 17 23 20 15 20 23 22 24 25 26 25 36 39 29 14 15 19 17 6 17 19 16 22 28 26 28 30 33 41 51 40 34 34 39 41 41 40 36 32 31
22 18 17 15 17 18 17 19 22 25 20 22 21 20 24 27 34 11 8 11 13 18 14 15 20 15 27 30 31 39 48 53 47 41 45 47 47 42 38 35 33 32 33
24 26 20 20 15 18 20 19 20 18 13 14 18 19 19 18 35 14 8 10 2 6 6 9 11 15 25 38 41 47 47 48 48 44 41 35 33 33 33 30 29 29 30
27 27 21 21 17 20 13 14 17 11 11 14 18 20 18 18 19 30 14 5 1 1 13 11 13 13 11 45 45 54 52 48 43 39 28 25 22 21 21 21 21 23 28
32 25 18 18 12 13 12 9 8 9 9 11 16 21 23 17 19 16 17 23 23 12 18 20 21 35 31 51 51 45 40 36 27 31 28 25 23 22 22 21 20 21 25
29 27 23 20 21 11 12 11 5 8 5 7 11 15 19 20 15 15 13 19 21 17 24 31 37 36 52 40 35 41 36 35 26 29 27 22 19 18 18 18 19 20 23
30 25 29 21 17 14 14 11 5 5 6 7 10 13 18 22 20 17 13 9 23 25 41 35 27 30 33 36 32 32 33 36 25 31 23 21 19 21 22 23 25 23 22
29 24 20 18 16 15 21 21 9 6 5 3 5 6 9 16 19 15 17 17 23 23 27 18 13 15 23 27 26 28 32 32 30 27 26 24 29 21 20 21 26 22 21
23 24 20 19 20 24 21 25 19 11 6 7 3 8 10 12 13 14 14 15 19 14 15 16 19 15 18 14 21 21 25 14 19 20 21 15 25 22 22 30 29 18 20
25 20 26 21 21 22 23 19 19 14 9 8 5 2 3 10 13 8 9 9 10 7 15 16 14 14 14 16 11 12 14 13 13 10 12 8 21 12 25 19 19 21 29
27 18 17 22 21 25 25 22 18 17 18 9 8 9 1 5 3 7 8 6 6 3 2 3 4 7 11 15 18 11 6 10 13 13 11 13 11 18 20 21 22 20 21
24 26 28 22 22 21 24 28 24 21 22 15 14 14 11 11 5 4 8 6 7 5 4 4 5 4 7 14 18 18 11 9 6 11 18 6 14 12 19 21 19 17 18
Wind_Direction_850mb
322 337 331 338 335 328 326 324 322 310 308 303 289 271 261 255 257 249 240 259 271 266 254 244 239 235 234 235 236 235 233 230 228 226 225 224 227 226 228 226 221 225 235
316 333 335 325 325 321 315 322 317 319 312 302 291 283 270 256 252 252 254 262 269 272 270 252 242 237 237 233 233 235 234 232 227 224 221 222 221 220 222 228 230 235 242
318 328 323 328 319 316 324 319 317 319 312 303 291 285 277 269 257 252 251 254 260 264 267 266 250 240 236 235 233 233 230 230 231 229 225 220 224 225 224 224 226 231 238
310 318 315 314 307 324 314 317 315 313 306 298 291 286 278 269 263 255 252 253 249 254 264 268 255 241 240 237 237 237 239 241 239 239 239 240 230 219 229 213 222 229 219
308 314 312 302 306 318 314 313 309 306 306 299 292 285 279 274 266 261 254 250 250 246 253 261 267 245 237 236 237 240 237 238 241 243 250 263 244 237 223 203 207 218 215
306 303 303 300 307 300 301 296 298 305 313 303 294 288 282 273 266 261 257 252 248 249 242 249 251 252 244 241 233 240 243 244 242 240 247 257 252 243 234 216 228 218 218
303 297 303 298 298 291 292 299 313 301 313 310 302 296 291 276 265 261 256 252 250 246 243 248 247 244 252 245 237 230 227 224 209 219 223 223 229 243 227 225 218 213 211
294 293 291 288 295 293 295 301 300 310 313 313 313 303 291 289 266 241 259 252 249 248 248 232 246 238 245 233 238 237 228 222 217 218 229 239 234 224 220 218 201 204 209
288 287 288 291 289 292 290 289 306 308 309 307 303 301 310 291 311 286 258 248 250 250 247 246 238 245 239 228 225 229 215 216 218 225 232 239 234 232 224 199 198 206 203
260 283 276 285 285 281 281 287 297 300 305 308 299 309 291 289 289 288 269 250 253 254 253 240 239 233 232 235 242 230 225 217 224 228 229 237 230 226 202 181 200 198 196
278 291 279 279 286 285 283 292 299 290 300 309 322 323 301 289 284 269 274 270 264 255 251 248 242 231 233 231 224 215 241 238 229 229 232 228 223 215 180 187 190 196 199
309 301 280 283 282 283 289 293 289 293 302 302 314 335 330 308 283 276 264 275 269 263 256 253 242 238 249 215 216 214 222 233 241 230 221 212 202 180 174 177 206 202 204
309 284 290 285 281 288 294 300 309 307 308 300 305 319 324 323 297 273 262 270 265 267 237 249 244 229 216 212 212 209 218 223 219 203 191 165 171 183 193 185 191 191 200
296 304 297 287 283 294 304 308 322 313 299 298 299 316 339 324 324 280 261 256 247 235 243 231 236 230 216 197 209 198 208 201 182 158 149 162 181 172 159 161 176 186 198
294 312 285 295 282 285 297 312 306 307 311 302 302 322 353 350 329 306 246 230 227 270 231 211 204 207 212 185 186 182 177 169 168 173 168 168 162 157 161 174 184 192 207
277 276 301 300 298 275 290 303 305 303 311 311 321 324 349 351 5 317 195 196 199 223 227 211 209 194 192 187 177 162 150 154 160 163 156 154 158 165 175 185 200 211 214
280 274 286 294 290 291 299 288 303 311 320 329 336 349 334 338 11 34 156 154 221 249 176 213 209 191 188 173 159 158 154 152 147 148 149 154 165 180 194 204 209 211 211
269 279 279 277 270 286 284 279 308 348 4 355 0 9 15 17 16 49 83 117 115 118 137 143 111 175 157 149 140 139 138 141 144 153 163 169 176 188 195 195 198 199 198
269 267 283 271 255 281 264 268 293 338 358 6 16 25 33 38 36 42 69 68 85 85 115 119 102 135 127 122 125 126 126 128 149 152 157 156 156 160 170 179 186 192 193
263 253 266 263 256 255 254 254 344 303 340 20 23 42 45 45 38 59 76 89 81 97 112 105 118 106 119 124 121 125 133 148 153 152 149 148 152 159 165 171 176 181 188
257 258 255 234 248 239 238 220 289 286 321 3 56 58 42 44 47 56 52 102 98 93 128 113 121 129 128 139 145 147 147 154 157 169 176 183 195 196 195 193 192 190 191
246 242 245 245 241 241 222 233 236 269 255 333 29 49 36 35 36 48 66 79 109 103 125 130 124 130 127 143 153 153 161 160 164 198 193 216 207 209 210 227 214 213 219
252 251 239 234 226 226 243 234 238 250 200 281 296 336 122 66 50 33 61 79 91 99 84 110 136 123 142 137 154 150 157 162 164 165 190 224 186 225 213 216 203 208 224
241 246 244 233 230 228 230 234 226 211 223 250 214 317 349 69 58 96 74 98 90 101 105 96 110 114 154 124 119 136 142 168 166 176 211 241 182 220 201 222 200 244 244
246 233 243 225 219 225 231 217 209 217 231 248 235 208 159 238 329 92 88 140 137 60 197 201 160 162 177 181 167 144 150 178 195 192 227 218 214 211 232 233 237 243 265
264 228 230 229 228 213 237 221 220 223 242 232 220 229 259 232 272 145 107 146 172 178 182 320 223 199 200 198 182 165 156 196 198 178 192 193 230 226 235 234 244 258 286